[[{"header":{"parameterUnit":"m.s-1","parameterCategory":1,"la1":30.2991,"la2":30.254,"lo1":-89.0895,"lo2":-89.0444,"dy":0.0017,"dx":0.0017,"nx":28,"ny":28,"refTime":"2024-06-18T03:00:00:Z","depth":0,"parameterNumber":2,"parameterNumberName":"U-component_of_WINDS"},"data":[0,0,0,0,0,0,0,0,0,0,0,0,0,0,0,0,0,0,0,0,0,0,0,0,0,0,0,0,0,0,0,0,0,0,0,0,0,0,0,0,0,0,0,0,0,0,0,0,0,0,0,0,0,0,0,0,0,0,-9.5586,-9.5587,0,-9.5645,-9.5646,-9.5646,-9.538,-9.5372,-9.5364,-9.5357,-9.5421,-9.5429,-9.5438,0,0,0,0,0,0,0,0,0,0,0,0,0,-9.5244,-9.5252,-9.5586,-9.5587,-9.5587,-9.5645,-9.5646,-9.5647,-9.5381,-9.5371,-9.5362,-9.5353,-9.5418,-9.5428,-9.5439,0,0,0,0,0,0,0,0,0,0,0,0,0,-9.5357,-9.5254,-9.5586,-9.5462,-9.5451,-9.5645,-9.5646,-9.5647,-9.5383,-9.5371,-9.5359,-9.5349,-9.5414,-9.5427,-9.544,-9.5757,0,0,-9.5481,-9.5487,0,0,0,0,0,0,0,0,-9.5351,-9.537,-9.5479,-9.5471,-9.5459,-9.5493,-9.5548,-9.5684,-9.5386,-9.5409,-9.5356,-9.5343,-9.5454,-9.5464,-9.55,-9.576,-9.5763,-9.5483,-9.5491,-9.5497,-9.55,0,0,0,0,0,0,0,-9.5343,-9.5366,-9.5609,-9.5481,-9.5469,-9.5403,-9.5406,-9.5573,-9.5497,-9.5406,-9.5387,-9.5397,-9.5446,-9.5488,-9.55,-9.5764,-9.5482,-9.5494,-9.5503,-9.5508,-9.6283,-9.6295,0,0,0,0,0,0,-9.5352,-9.5361,-9.5607,-9.5611,-9.5375,-9.5419,-9.5422,-9.5494,-9.5494,-9.5483,-9.5407,-9.5385,-9.5471,-9.5485,-9.5501,-9.5869,-9.5496,-9.5509,-9.5517,-9.6271,-9.6286,-9.63,0,0,0,0,0,0,-9.5345,-9.5376,-9.5605,-9.5481,-9.5505,-9.5437,-9.552,-9.5501,-9.5542,-9.5495,-9.548,-9.5464,-9.5462,-9.5482,-9.5695,-9.5868,-9.5515,-9.5527,-9.6256,-9.6276,-9.6293,-9.6611,0,0,0,0,0,0,-9.5337,-9.5376,-9.5495,-9.5486,-9.5513,-9.5798,-9.553,-9.5511,-9.5566,-9.5537,-9.5544,-9.5534,-9.5455,-9.5676,-9.5708,-9.588,-9.5538,-9.624,-9.6265,-9.6287,-9.6585,-9.6639,-9.6685,0,0,0,0,0,-9.5325,-9.5584,-9.5503,-9.5534,-9.5661,-9.5809,-9.5824,-9.5727,-9.5581,-9.57,-9.5669,-9.5534,-9.5845,-9.57,-9.5734,-9.5913,-9.6229,-9.6258,-9.6285,-9.6563,-9.6628,-9.6683,0,0,0,0,0,0,-9.5617,-9.558,-9.549,-9.5753,-9.5786,-9.5763,-9.5911,-9.58,-9.5876,-9.5845,-9.5722,-9.5726,-9.596,-9.5957,-9.5797,-9.6218,-9.6011,-9.6048,-9.6211,-9.6273,-9.6321,-9.6316,-9.5549,0,0,0,0,0,-9.5712,-9.5835,-9.5796,-9.6032,-9.6053,-9.598,-9.6041,-9.5963,-9.5992,-9.6005,-9.5989,-9.6024,-9.6129,-9.6201,-9.6295,-9.6584,-9.658,-9.6723,-9.6773,-9.6814,-9.6847,-9.6997,-9.7059,-9.6392,-9.6392,-9.6392,0,0,-9.591,-9.5905,-9.599,-9.609,-9.6106,-9.6236,-9.5994,-9.6142,-9.6236,-9.6028,-9.6226,-9.6217,-9.6247,-9.6498,-9.6608,-9.6504,-9.703,-9.685,-9.6883,-9.6893,-9.7032,-9.7095,-9.7152,-9.6411,-9.6408,-9.6405,0,0,-9.6335,-9.6345,-9.654,-9.6561,-9.6588,-9.6537,-9.6585,-9.6579,-9.6564,-9.6761,-9.6607,-9.6718,-9.6902,-9.6929,-9.6967,-9.7402,-9.7278,-9.7436,-9.7696,-9.7843,-9.7896,-9.7942,-9.8094,-9.8151,-9.7469,-9.747,-9.747,0,-9.6577,-9.6765,-9.6655,-9.6813,-9.6861,-9.6677,-9.6874,-9.69,-9.6958,-9.6995,-9.6877,-9.7102,-9.711,-9.7363,-9.7469,-9.7507,-9.7556,-9.7434,-9.7897,-9.7942,-9.7983,-9.8127,-9.8185,-9.7488,-9.7486,-9.7484,-9.7482,0,-9.706,-9.7194,-9.7349,-9.7406,-9.7472,-9.765,-9.7566,-9.7646,-9.7563,-9.7525,-9.7727,-9.7729,-9.7819,-9.7874,-9.7795,-9.8117,-9.8051,-9.7918,-9.7707,-9.8067,-9.8201,-9.8255,-9.7515,-9.7508,-9.7503,-9.7498,0,0,-9.7671,-9.7664,-9.7723,-9.7746,-9.7762,-9.7862,-9.8031,-9.8117,-9.8187,-9.8234,-9.8371,-9.853,-9.8405,-9.8449,-9.8371,-9.8501,-9.8842,-9.8351,-9.8349,-9.844,-9.9194,-9.9293,-9.9359,-9.8761,-9.8771,-9.8779,-9.9191,0,-9.8085,-9.8371,-9.8276,-9.8566,-9.8686,-9.8513,-9.8659,-9.8685,-9.8655,-9.8752,-9.8718,-9.8832,-9.866,-9.8685,-9.8806,-9.8775,-9.8992,-9.8745,-9.8887,-9.8893,-9.8882,-9.9429,-9.9534,-9.9922,-9.9242,-9.9251,-9.9258,0,-9.8607,-9.8671,-9.8973,-9.8966,-9.9013,-9.9146,-9.9216,-9.9313,-9.9338,-9.9306,-9.9355,-9.9249,-9.9413,-9.9204,-9.9428,-9.9262,-9.9314,-9.9308,-9.9321,-9.9329,-9.9096,-9.945,-10.0044,-10.0102,-9.9339,-9.9333,-9.9327,0,-9.9019,-9.9182,-9.9382,-9.9407,-9.9405,-9.9502,-9.9506,-9.9519,-9.9577,-9.9639,-9.9675,-9.9757,-9.9802,-9.9867,-9.9786,-9.9642,-10.0022,-9.9806,-9.9999,-10.0002,-10.0085,-10.0081,-10.0695,-10.0124,-10.0124,-10.0122,-10.0121,0,-9.949,-9.9681,-9.9566,-9.969,-9.9898,-9.9788,-9.9997,-9.9981,-9.9995,-10.0112,-9.9968,-10.0081,-9.9968,-10.0071,-10.0009,-10.0202,-10.0225,-10.0203,-10.0184,-10.0215,-10.0217,-10.0246,-10.0216,-10.0138,-10.0134,-10.0131,-10.0129,0,-9.9985,-9.9916,-10.0123,-10.0103,-10.0102,-10.0257,-10.0239,-10.0352,-10.0311,-10.0461,-10.049,-10.0425,-10.0539,-10.0464,-10.058,-10.0537,-10.079,-10.0735,-10.0781,-10.0765,-10.0961,-10.0943,-10.1613,-10.1694,-10.1075,-10.1081,-10.1086,0,-10.0289,-10.0431,-10.0426,-10.0493,-10.0506,-10.0617,-10.0674,-10.0571,-10.0637,-10.0675,-10.0784,-10.0885,-10.0959,-10.1148,-10.1112,-10.1199,-10.1143,-10.1372,-10.1155,-10.1181,-10.1143,-10.1135,-10.1148,-10.1415,-10.1423,-10.1429,-10.1433,0,-10.0836,-10.0794,-10.0881,-10.0957,-10.1029,-10.1084,-10.1128,-10.1192,-10.1088,-10.1169,-10.1282,-10.134,-10.1456,-10.1557,-10.1629,-10.1632,-10.1517,-10.1502,-10.1551,-10.1583,-10.1602,-10.1592,-10.0898,-10.1487,-10.1481,-10.1478,-10.1475,-10.1472,-10.1242,-10.1359,-10.1373,-10.1475,-10.1496,-10.154,-10.1644,-10.1615,-10.1707,-10.1792,-10.1727,-10.1861,-10.1881,-10.1965,-10.1984,-10.2087,-10.1994,-10.2066,-10.2083,-10.2102,-10.2128,-10.1588,-10.2101,-10.2099,-10.2097,-10.2096,-10.2095,0,-10.1778,-10.1778,-10.1873,-10.1937,-10.2017,-10.19,-10.1942,-10.2016,-10.2136,-10.2164,-10.224,-10.2369,-10.2467,-10.2438,-10.2525,-10.2613,-10.2562,-10.2639,-10.263,-10.2633,-10.2208,-10.2155,-10.2679,-10.2679,-10.2679,-10.2679,-10.2679,-10.2678,-10.2066,-10.2257,-10.2218,-10.2418,-10.2416,-10.2546,-10.2579,-10.2619,-10.264,-10.279,-10.287,-10.285,-10.2855,-10.2941,-10.3024,-10.3013,-10.3051,-10.3148,-10.3118,-10.2721,-10.2663,-10.2608,-10.2558,-10.3158,-10.3158,-10.3533,-10.3536,-10.3539]},{"header":{"parameterUnit":"m.s-1","parameterCategory":1,"la1":30.2991,"la2":30.254,"lo1":-89.0895,"lo2":-89.0444,"dy":0.0017,"dx":0.0017,"nx":28,"ny":28,"refTime":"2024-06-18T03:00:00:Z","depth":0,"parameterNumber":3,"parameterNumberName":"V-component_of_WINDS"},"data":[0,0,0,0,0,0,0,0,0,0,0,0,0,0,0,0,0,0,0,0,0,0,0,0,0,0,0,0,0,0,0,0,0,0,0,0,0,0,0,0,0,0,0,0,0,0,0,0,0,0,0,0,0,0,0,0,0,0,-1.2416,-1.2416,0,-1.2398,-1.2398,-1.2398,-1.2419,-1.2419,-1.242,-1.2421,-1.24,-1.2398,-1.2397,0,0,0,0,0,0,0,0,0,0,0,0,0,-1.2464,-1.2463,-1.2416,-1.2416,-1.2416,-1.2398,-1.2398,-1.2398,-1.2418,-1.2419,-1.242,-1.2421,-1.24,-1.2399,-1.2397,0,0,0,0,0,0,0,0,0,0,0,0,0,-1.2445,-1.2463,-1.2416,-1.2424,-1.2424,-1.2398,-1.2398,-1.2398,-1.2418,-1.2419,-1.2421,-1.2422,-1.2401,-1.2399,-1.2397,-1.2361,0,0,-1.2391,-1.239,0,0,0,0,0,0,0,0,-1.2446,-1.2443,-1.2423,-1.2423,-1.2424,-1.2412,-1.2407,-1.2385,-1.2418,-1.2421,-1.2421,-1.2422,-1.2403,-1.2401,-1.2395,-1.236,-1.2359,-1.2391,-1.239,-1.2389,-1.2388,0,0,0,0,0,0,0,-1.2447,-1.2444,-1.2409,-1.2423,-1.2423,-1.2427,-1.2426,-1.2403,-1.2405,-1.242,-1.2422,-1.242,-1.2403,-1.2396,-1.2394,-1.2359,-1.2391,-1.2389,-1.2388,-1.2387,-1.2292,-1.2291,0,0,0,0,0,0,-1.2448,-1.2445,-1.2409,-1.2408,-1.2438,-1.2425,-1.2424,-1.2415,-1.2405,-1.2405,-1.2419,-1.2421,-1.2399,-1.2396,-1.2394,-1.235,-1.2389,-1.2387,-1.2386,-1.2294,-1.2292,-1.2291,0,0,0,0,0,0,-1.2449,-1.2445,-1.241,-1.2427,-1.2423,-1.2423,-1.2413,-1.2414,-1.2407,-1.2404,-1.2404,-1.2412,-1.24,-1.2396,-1.2369,-1.2349,-1.2386,-1.2384,-1.2295,-1.2293,-1.2291,-1.2262,0,0,0,0,0,0,-1.245,-1.2445,-1.2432,-1.2427,-1.2422,-1.2387,-1.2412,-1.2412,-1.2404,-1.2406,-1.2398,-1.2397,-1.2401,-1.2372,-1.2367,-1.2347,-1.2383,-1.2297,-1.2294,-1.2292,-1.2265,-1.2259,-1.2255,0,0,0,0,0,-1.2452,-1.2424,-1.2431,-1.2427,-1.2406,-1.2386,-1.2383,-1.2388,-1.2402,-1.2389,-1.2387,-1.2398,-1.2353,-1.2369,-1.2363,-1.2343,-1.2298,-1.2295,-1.2292,-1.2267,-1.2261,-1.2255,0,0,0,0,0,0,-1.2427,-1.2424,-1.2432,-1.2402,-1.2394,-1.2389,-1.2372,-1.2381,-1.2368,-1.2371,-1.2377,-1.2375,-1.2345,-1.2342,-1.236,-1.2307,-1.2327,-1.2323,-1.231,-1.2304,-1.2299,-1.23,-1.2381,0,0,0,0,0,-1.2418,-1.2403,-1.2401,-1.2374,-1.237,-1.2372,-1.2363,-1.2368,-1.236,-1.2356,-1.2352,-1.2343,-1.2326,-1.2315,-1.23,-1.2265,-1.2262,-1.2248,-1.2243,-1.2239,-1.2235,-1.2214,-1.2207,-1.2281,-1.2281,-1.2281,0,0,-1.2399,-1.2396,-1.2385,-1.2369,-1.2364,-1.2346,-1.2369,-1.235,-1.2336,-1.2353,-1.2326,-1.2323,-1.2313,-1.2281,-1.2267,-1.2277,-1.2214,-1.2235,-1.2232,-1.223,-1.221,-1.2203,-1.2197,-1.2279,-1.2279,-1.2279,0,0,-1.2355,-1.2352,-1.2329,-1.2323,-1.2315,-1.2316,-1.2311,-1.2305,-1.2303,-1.2277,-1.2289,-1.2272,-1.2245,-1.2236,-1.2228,-1.2181,-1.219,-1.2176,-1.2149,-1.2128,-1.2123,-1.2117,-1.2098,-1.2092,-1.2172,-1.2172,-1.2172,0,-1.2333,-1.2308,-1.2316,-1.2296,-1.2287,-1.2303,-1.2278,-1.2272,-1.2258,-1.2252,-1.2264,-1.2228,-1.2223,-1.2188,-1.2176,-1.217,-1.2162,-1.2176,-1.2123,-1.2118,-1.2113,-1.2095,-1.2088,-1.217,-1.217,-1.2171,-1.2171,0,-1.2279,-1.2262,-1.2244,-1.2231,-1.2221,-1.2199,-1.2202,-1.2191,-1.2197,-1.2196,-1.2168,-1.2162,-1.2145,-1.2138,-1.2143,-1.2103,-1.211,-1.2122,-1.2143,-1.2104,-1.2087,-1.208,-1.2168,-1.2168,-1.2169,-1.2169,0,0,-1.2218,-1.221,-1.2203,-1.2197,-1.2189,-1.2175,-1.2153,-1.2137,-1.2126,-1.2117,-1.2097,-1.2073,-1.2084,-1.2075,-1.208,-1.2062,-1.2022,-1.2076,-1.2076,-1.2065,-1.1975,-1.1964,-1.1956,-1.2029,-1.2027,-1.2026,-1.1976,0,-1.2173,-1.2135,-1.2142,-1.2105,-1.2087,-1.2102,-1.2082,-1.2074,-1.2073,-1.2058,-1.2056,-1.2038,-1.2056,-1.205,-1.2033,-1.203,-1.2004,-1.2035,-1.2008,-1.2007,-1.2008,-1.1948,-1.1936,-1.1889,-1.1969,-1.1968,-1.1967,0,-1.2114,-1.2103,-1.2064,-1.2058,-1.2051,-1.2033,-1.2019,-1.2004,-1.1995,-1.1995,-1.1985,-1.1993,-1.1969,-1.1991,-1.1957,-1.1978,-1.1968,-1.1965,-1.1963,-1.1959,-1.1983,-1.194,-1.1874,-1.1866,-1.1957,-1.1958,-1.1959,0,-1.2071,-1.2046,-1.2019,-1.2014,-1.2006,-1.1993,-1.1989,-1.1981,-1.1971,-1.1958,-1.1951,-1.1935,-1.1926,-1.1913,-1.1915,-1.1932,-1.188,-1.1903,-1.1878,-1.1877,-1.1864,-1.1865,-1.1793,-1.1861,-1.1862,-1.1862,-1.1862,0,-1.2018,-1.1993,-1.2,-1.1983,-1.1955,-1.1962,-1.1934,-1.1932,-1.1925,-1.1906,-1.1918,-1.1901,-1.1906,-1.1888,-1.189,-1.186,-1.1857,-1.1855,-1.1855,-1.1853,-1.1852,-1.1844,-1.1847,-1.186,-1.186,-1.1861,-1.1861,0,-1.1964,-1.1967,-1.1939,-1.1934,-1.1932,-1.1912,-1.1907,-1.189,-1.1891,-1.1868,-1.1862,-1.1862,-1.1842,-1.1844,-1.1821,-1.1822,-1.1784,-1.179,-1.1788,-1.1788,-1.1762,-1.1763,-1.1681,-1.1669,-1.1747,-1.1746,-1.1746,0,-1.1929,-1.191,-1.1904,-1.1893,-1.1888,-1.1871,-1.186,-1.1867,-1.1855,-1.1843,-1.1827,-1.1808,-1.1793,-1.176,-1.1757,-1.1739,-1.1742,-1.1715,-1.1739,-1.1737,-1.1739,-1.1739,-1.1736,-1.1709,-1.1708,-1.1707,-1.1707,0,-1.1866,-1.1868,-1.1854,-1.1839,-1.1827,-1.1815,-1.1805,-1.1795,-1.18,-1.1787,-1.1766,-1.1755,-1.1732,-1.1712,-1.1694,-1.1689,-1.1697,-1.1699,-1.1692,-1.1688,-1.1686,-1.1685,-1.1772,-1.1701,-1.1701,-1.1702,-1.1702,-1.1702,-1.1818,-1.1802,-1.1794,-1.1777,-1.177,-1.176,-1.1744,-1.1743,-1.1726,-1.1708,-1.1713,-1.169,-1.168,-1.1658,-1.165,-1.1631,-1.1641,-1.1631,-1.1628,-1.1625,-1.1621,-1.1692,-1.1628,-1.1628,-1.1629,-1.1629,-1.1629,0,-1.1754,-1.175,-1.1734,-1.1719,-1.1705,-1.1717,-1.1706,-1.1693,-1.1673,-1.1663,-1.1648,-1.1624,-1.1605,-1.1601,-1.1582,-1.1567,-1.157,-1.1561,-1.1561,-1.1559,-1.1614,-1.1621,-1.1559,-1.1559,-1.1559,-1.1559,-1.1559,-1.1559,-1.1718,-1.169,-1.1692,-1.166,-1.1656,-1.1634,-1.1626,-1.1616,-1.1609,-1.1582,-1.1566,-1.1564,-1.1556,-1.1536,-1.1518,-1.1517,-1.1509,-1.1498,-1.1498,-1.1549,-1.1556,-1.1562,-1.1569,-1.1496,-1.1496,-1.1445,-1.1444,-1.1444]}]]